Tracking 27122 objects as of 25-Mar-2023
HD Live streaming from Space Station
objects crossing your sky now

STARLINK-2562

Track STARLINK-2562 now!
10-day predictions
STARLINK-2562 is classified as:


NORAD ID: 48288
Int'l Code: 2021-036N
Perigee: 553.4 km
Apogee: 555.0 km
Inclination: 53.1 °
Period: 95.6 minutes
Semi major axis: 6925 km
RCS: Unknown
Launch date: April 29, 2021
Source: United States (US)
Launch site: AIR FORCE EASTERN TEST RANGE (AFETR)
Your satellite tracking list
Your tracking list is empty




NASA's NSSDC Master Catalog

Two Line Element Set (TLE):
1 48288U 21036N   23083.65531375  .00035214  00000-0  23680-2 0  9999
2 48288  53.0515 254.5622 0001170 160.0055 200.0980 15.06449980105958
Source of the keplerian elements: AFSPC